Location: Austin
(30.3000°N, 97.7500°W)
Time: 21:45:15
(UTC-05:00)

OAO 2 Rocket - Pass Details

Date: 05 September 2024
Orbit: 672 x 738 km, 35.0° (Epoch: 14 September)

Event Time Altitude Azimuth Distance (km) Brightness Sun altitude
Rises 21:16:25 0° 281° (W) 3,013 8.2 -19.3°
Reaches altitude 10° 21:18:52 10° 286° (WNW) 2,105 7.0 -19.8°
Maximum altitude 21:23:38 48° 1° (N) 887 3.9 -20.8°
Enters shadow 21:25:27 33° 54° (NE) 1,153 4.1 -21.2°
